Regional Weather Roundup
Issued by NWS

Home | Current Version | Previous Version | Text Only | Print | Product List | Glossary On
Versions: 1 2 3 4 5 6 7 8 9 10 11 12 13 14 15 16 17 18 19 20 21 22 23 24 25 26 27
000
ASPQ40 PGUM 201412
RWRPQ
WEATHER ROUNDUP FOR THE MARIANAS AND MICRONESIA
NATIONAL WEATHER SERVICE TIYAN GU
1200 AM CHST FRI JUL 21 2017

GUZ001>004-201500-
MARIANA ISLANDS-

CITY           SKY/WX    TMP DP  RH WIND       PRES   REMARKS
GUAM AIRPORT   CLEAR     82  79  89 E6        29.90F HX  93
ANDERSEN AFB   PTCLDY    81  77  89 E10       29.91F
ROTA AIRPORT   NOT AVBL
TINIAN AP      NOT AVBL
SAIPAN AP      MOCLDY    84  79  84 E10       29.89F HX  96

$$

PMZ161-201500-
REPUBLIC OF PALAU-

CITY           SKY/WX    TMP DP  RH WIND       PRES   REMARKS
KOROR AP       LGT RAIN  75  75 100 NW7       29.83F
KOROR WSO      LGT RAIN  77  75  94 NW6       29.84F

$$

PMZ171>174-201500-
FEDERATED STATES OF MICRONESIA-

CITY           SKY/WX    TMP DP  RH WIND       PRES   REMARKS
YAP AIRPORT    NOT AVBL
CHUUK AP       CLOUDY    86  79  79 VRB6      29.80F HX  99
POHNPEI AP     NOT AVBL
POHNPEI WSO    CLOUDY    82  77  83 E7        29.81F HX  91
KOSRAE AP      NOT AVBL

$$

PMZ181-201500-
REPUBLIC OF THE MARSHALL ISLANDS-

CITY           SKY/WX    TMP DP  RH WIND       PRES   REMARKS
KWAJALEIN AP   MOCLDY    82  75  78 E18       29.81F
MAJURO AP      NOT AVBL
MAJURO WSO     NOT AVBL

$$





USA.gov is the U.S. government's official web portal to all federal, state and local government web resources and services.